FENGYUN 1C DEB

Satellite information

Favourite Embed

Satellite Type and Status

DEBRISIN ORBIT

Key statistics

Satellite FENGYUN 1C DEB at a glance.

Uptime

9493

Days in orbit

Revolutions

≈ 14.1

Per day

Orbit

SSO

Sun Synchronous Orbit

Inclination

98.7

Latest

Satellite identification and parameters

Extended collection of information and parameters for FENGYUN 1C DEB.

Object identification

Identified? True

Debris? True

Object name: FENGYUN 1C DEB

International designator: 1999-025CVB

Object number (NORAD): 32205

Object ID (CCSDS): 32205

Country: PEOPLES REPUBLIC OF CHINA (PRC)

Current information (Y/N): Y

RCS size: SMALL

Orbital parameters

Period: 101.857 minutes

Inclination: 98.6786 deg

SMA: 7224.718 km

Apoapsis: 854.163 km

Periapsis: 839.004 km

RAAN: 132.4137 deg

Eccentricy: 0.0010491

Argument of periapsis: 205.5698 deg

Mean anomaly: 184.2006 deg

Mean motion: 14.13745935 rev/day

Mean motion (dot): 0.00000426 rev/day2

B* drag term: 0.00024764 1/REarth

Two-line elements (TLE)

Creation date: May 2, 2025, 1:46 a.m.

Reference frame: TEME

Reference center: EARTH

Epoch: May 1, 2025, 11:27 p.m. UTC

TLE line 0: 0 FENGYUN 1C DEB

TLE line 1: 1 32205U 99025CVB 25121.97754692 .00000426 00000-0 24764-3 0 9995

TLE line 2: 2 32205 98.6786 132.4137 0010491 205.5698 184.2006 14.13745935917245

Live tracking on map

Real-time ground track for satellite FENGYUN 1C DEB.

In-orbit conjunctions

A list of the most updated potential collisions computed for object FENGYUN 1C DEB.

Target Orbit TCA Probability of collision Miss distance Type
CZ-6A DEB LEO 2025-01-17 13:20:58 0.0002600645 787.0 (m) DEBRIS

Associated space launch

Chinese polar orbiting meteorological satellite

FENGYUN 1C DEB was lifted into orbit during the mission ‘Long March 4B | Feng Yun 1C’, on board a Long March 4B space rocket.

The launch took place on May 10, 1999, 1:33 a.m. from Launch Complex 7.

For more information about the launch, click the button.

Launch to space Long March 4B | Feng Yun 1C
Long March 4B | Feng Yun 1C

Agency: N/A

Status: Launch Successful

Launch date: May 10, 1999, 1:33 a.m. UTC

Rocket: Long March 4B

Launch pad: Launch Complex 7

Location: Taiyuan Satellite Launch Center, People's Republic of China

...

Latest news about this satellite

There are no fresh news available about this satellite. Check back as we update our databases every day.


Newsletter sign-up

Weekly statistics, charts and insights to help you stay on top of the space industry.